Location: Leeds
(37.2390°N, 113.3580°W)
Time: 06:06:48
(UTC-06:00)

SL-08 RB Rocket - Visible Passes

Search period start: 28 March 2017 00:00
Search period end: 07 April 2017 00:00
Orbit: 649 x 684 km, 98.0° (Epoch: 26 March)

Date Brightness Start Highest point End Pass type
(mag) Time Alt. Az. Time Alt. Az. Time Alt. Az.
28 Mar 6.2 23:09:02 18° NNW 23:09:02 18° NNW 23:10:11 10° NNW visible
29 Mar 5.9 22:02:50 15° NNE 22:02:50 15° NNE 22:03:57 10° NNE visible
29 Mar 6.7 23:40:57 13° NW 23:40:57 13° NW 23:41:30 10° NNW visible
30 Mar 5.8 22:34:44 20° N 22:34:44 20° N 22:36:19 10° N visible
31 Mar 6.0 23:06:40 20° NNW 23:06:40 20° NNW 23:08:09 10° NNW visible
01 Apr 5.8 22:00:28 16° NE 22:00:28 16° NE 22:01:50 10° NNE visible
01 Apr 6.5 23:38:36 15° NW 23:38:36 15° NW 23:39:30 10° NNW visible
02 Apr 5.6 22:32:23 23° NNE 22:32:23 23° NNE 22:34:16 10° N visible
03 Apr 5.8 23:04:18 24° NNW 23:04:18 24° NNW 23:06:07 10° NNW visible
04 Apr 5.7 21:58:06 16° NE 21:58:06 16° NE 21:59:44 10° NNE visible
04 Apr 6.4 23:36:14 17° NW 23:36:14 17° NW 23:37:30 10° NNW visible
05 Apr 5.4 22:30:02 25° NNE 22:30:02 25° NNE 22:32:11 10° N visible
06 Apr 5.6 23:01:57 27° NNW 23:01:57 27° NNW 23:04:05 10° NNW visible
